EW4092 Weather Reports


Display with metric or nautical units.
time (UTC)temp
F
wind
direction
speed
MPH
gust
MPH
rain 1hr
in
rain 24hr
in
rain mn
in
humidity
%
barometer
mb
20260504081507 58 131 0.0 0.0 0.00 0.00 0.00 64 1009.0
20260504044554 67 108 1.0 2.0 0.00 0.00 0.00 48 1009.2
20260504043057 68 65 0.0 0.0 0.00 0.00 0.00 48 1009.0
20260504041551 69 65 0.0 0.0 0.00 0.00 0.00 45 1008.8
20260504040053 71 65 0.0 0.0 0.00 0.00 0.00 40 1008.7
20260504034556 73 65 0.0 0.0 0.00 0.00 0.00 38 1008.5
20260504033050 74 65 0.0 0.0 0.00 0.00 0.00 36 1008.3
20260504031550 76 65 0.0 1.0 0.00 0.00 0.00 33 1008.2
20260504030048 78 65 0.0 0.0 0.00 0.00 0.00 31 1008.1
20260504024552 81 65 0.0 2.0 0.00 0.00 0.00 28 1008.0
20260504023047 83 65 0.0 3.0 0.00 0.00 0.00 26 1008.0
20260504021552 84 52 2.0 5.0 0.00 0.00 0.00 24 1008.0
20260504020045 85 75 0.0 6.0 0.00 0.00 0.00 22 1008.1
20260504014544 86 41 2.0 5.0 0.00 0.00 0.00 22 1008.2
20260504013056 86 75 0.0 4.0 0.00 0.00 0.00 21 1008.3
20260504011543 87 84 1.0 3.0 0.00 0.00 0.00 20 1008.4
20260504010042 86 60 1.0 3.0 0.00 0.00 0.00 19 1008.6
20260504004538 85 113 0.0 5.0 0.00 0.00 0.00 20 1008.8
20260504003036 86 335 0.0 4.0 0.00 0.00 0.00 20 1009.0
20260504001538 86 250 2.0 5.0 0.00 0.00 0.00 20 1009.2
20260504000033 86 5 1.0 5.0 0.00 0.00 0.00 21 1009.3
20260503234531 86 59 2.0 5.0 0.00 0.00 0.00 21 1009.4
20260503233030 86 245 3.0 6.0 0.00 0.00 0.00 21 1009.7
20260503231528 86 243 1.0 4.0 0.00 0.00 0.00 21 1009.9
20260503230037 86 40 3.0 5.0 0.00 0.00 0.00 20 1010.1
20260503224522 85 101 2.0 8.0 0.00 0.00 0.00 22 1010.4
20260503223020 84 186 1.0 3.0 0.00 0.00 0.00 22 1010.6
20260503221517 84 58 1.0 6.0 0.00 0.00 0.00 23 1010.8
20260503220014 83 250 0.0 5.0 0.00 0.00 0.00 22 1011.1
20260503214533 83 242 3.0 8.0 0.00 0.00 0.00 21 1011.3
20260503213010 83 257 3.0 6.0 0.00 0.00 0.00 22 1011.6
20260503211508 83 262 1.0 7.0 0.00 0.00 0.00 23 1011.8
20260503210006 84 326 3.0 8.0 0.00 0.00 0.00 23 1012.0
20260503204504 84 91 1.0 7.0 0.00 0.00 0.00 23 1012.3
20260503203003 83 103 2.0 7.0 0.00 0.00 0.00 23 1012.5
20260503201559 82 275 2.0 5.0 0.00 0.00 0.00 24 1012.6
20260503200056 82 156 0.0 4.0 0.00 0.00 0.00 23 1012.8
20260503194602 81 275 0.0 8.0 0.00 0.00 0.00 24 1013.0
20260503193056 81 94 3.0 7.0 0.00 0.00 0.00 25 1013.2
20260503191607 80 36 1.0 3.0 0.00 0.00 0.00 27 1013.4
20260503190050 80 354 1.0 6.0 0.00 0.00 0.00 28 1013.6
20260503184646 80 52 0.0 6.0 0.00 0.00 0.00 27 1013.7
20260503183039 79 56 2.0 4.0 0.00 0.00 0.00 29 1013.9
20260503181547 78 111 0.0 4.0 0.00 0.00 0.00 30 1014.0
20260503180039 78 186 1.0 5.0 0.00 0.00 0.00 29 1014.2
20260503174541 77 89 0.0 4.0 0.00 0.00 0.00 32 1014.3
20260503173027 76 108 1.0 5.0 0.00 0.00 0.00 34 1014.2
20260503171524 75 143 1.0 5.0 0.00 0.00 0.00 35 1014.5